{"data":{"norad_id":61195,"intl_designator":"2024-170A","name":"TIANQI-29","alt_names":[],"object_type":"PAYLOAD","status":"ACTIVE","operator":null,"country":"PRC","launch_date":"2024-09-20","launch_site_code":"XICLF","launch_vehicle":null,"mission":null,"orbit_class":"UNKNOWN","rcs_meters":null,"size_class":null,"mass_kg":null,"dimensions":null,"purposes":[],"wikipedia_slug":null,"has_3d_model":false,"image_url":null,"decayed_at":null,"tle_current":{"epoch":"2026-05-25T03:03:12.247776Z","epoch_age_seconds":64848,"freshness":"FRESH","line1":"1 61195U 24170A   26145.12722509  .00000057  00000+0  12655-3 0  9995","line2":"2 61195  44.8567 239.5438 0005532 331.9772  28.0761 13.99139645 85635","mean_motion":13.99139645,"eccentricity":0.0005532,"inclination_deg":44.8567,"raan_deg":239.5438,"arg_perigee_deg":331.9772,"mean_anomaly_deg":28.0761,"bstar":0.00012655,"rev_number":8563,"period_min":102.92039148101,"perigee_km":892.75144407073,"apogee_km":900.80040773195,"semimajor_km":7274.9129259013,"source":"CELESTRAK","updated_at":"2026-05-25T13:38:02.313465Z"}}}